Home   Weather   Querétaro   Past weeks

Flag for Mexico Past Weather in Querétaro, Querétaro, Mexico — Yesterday and Last 2 Weeks

Now
41 °F

Passing clouds.


Feels Like: 41 °F
Forecast: 47 / 75 °F
Wind: No wind

Location: Queretaro - Qro.

Current Time: Jan 17, 2017 at 5:05:12 am

Latest Report: Jan 17, 2017 at 4:45 am


Visibility: 8 mi

Pressure: 30.25 "Hg (24.20 "Hg at 1817m altitude)

Humidity: 87%

Dew Point: 37 °F

Location of QuerétaroLocation

Past Weather in Querétaro — Graph

°F

Querétaro Temperature Yesterday

Maximum temperature yesterday: 73 °F (at 2:45 pm)
Minimum temperature yesterday: 39 °F (at 6:45 am)
Average temperature yesterday: 61 °F

High & Low Weather Summary for the Past Weeks

 TemperatureHumidityPressure
High82 °F (Jan 4, 3:45 pm)100% (Jan 4, 4:45 am)30.63 "Hg (Jan 4, 4:45 am)
Low30 °F (Jan 10, 7:45 am)10% (Jan 10, 3:45 pm)30.12 "Hg (Jan 5, 3:45 pm)
Average56 °F53%30.34 "Hg
* Reported Jan 2 2:45 am — Jan 17 2:45 am, Querétaro, Weather by CustomWeather, © 2017

Note: Actual official high and low records may vary slightly from our data, if they occured in-between our weather recording intervals... More about our weather records

Advertising

Querétaro Weather History for the Previous 24 Hours

Scroll right to see more
 ConditionsComfort  
Time TempWeatherWind HumidityBarometerVisibility
2:45 am
Tue, Jan 17
46 °FThunderstorms. Overcast.N/A76%30.24 "HgN/A
12:45 am52 °FPassing clouds.8 mph67%30.26 "Hg8 mi
11:45 pm
Mon, Jan 16
54 °FPassing clouds.No wind63%30.26 "Hg8 mi
10:45 pm55 °FPassing clouds.7 mph59%30.27 "Hg8 mi
9:45 pm61 °FPassing clouds.7 mph48%30.25 "Hg8 mi
8:45 pm61 °FPassing clouds.2 mph42%30.23 "Hg8 mi
6:45 pm66 °FClear.2 mph35%30.16 "Hg8 mi
5:45 pm72 °FSunny.5 mph29%30.14 "Hg7 mi
4:40 pm73 °FSunny.3 mph27%30.14 "Hg7 mi
3:45 pm73 °FSunny.6 mph27%30.14 "Hg7 mi
2:45 pm73 °FSunny.5 mph27%30.19 "Hg7 mi
1:45 pm72 °FSunny.No wind29%30.19 "Hg7 mi
12:45 pm70 °FSunny.5 mph31%30.23 "Hg7 mi
11:40 am66 °FSunny.2 mph32%30.28 "Hg7 mi
10:45 am64 °FSunny.2 mph34%30.30 "Hg6 mi
9:45 am57 °FSunny.5 mph44%30.31 "Hg8 mi
8:48 am52 °FSunny.5 mph54%30.30 "Hg8 mi
7:45 am46 °FSunny.7 mph57%30.27 "Hg8 mi
6:45 am39 °FClear.7 mph70%30.25 "Hg8 mi
5:45 am41 °FPassing clouds.3 mph70%30.24 "Hg8 mi
Weather by CustomWeather, © 2017

See weather overviewHow to use our weather pages